www.pogodaiklimat.ru

Погода и климат >> Архив погоды >> Россия >> Сахалинская область >> Поронайск


ПОГОДА в Поронайске

  • Прогноз погоды в Поронайске
  • Монитор погоды в Поронайске
  • Климат города

АРХИВ ПОГОДЫ в Поронайске

Время (UTC), дата Ветер
(напр.,м/с)
 
Видим.   Явления Облачность Т
(С)
Тd
(С)
f
(%)
Тe
(С)
Тes
(С)
Комфортность P
(гПа)
Po
(гПа)
Тmin
(С)
Tmax
(С)
R
(мм)
R24
(мм)
S
(см)
03 13.11 В 2-3
{3}
20 км 4/0
[Ac cast Ci fib]
-2.9 -8.9 63 -7 -4 1016.6 1015.4
06 13.11 В 2-3
{4}
20 км 3/0
[Ci fib]
-2.4 -7.7 67 -6 -6 1016.2 1015.1
09 13.11 СВ 2-3
{3}
20 км ясно -7.5 -9.7 84 -12 -12 1016.2 1015.0 -2.2
12 13.11 С 2-3
{4}
20 км 3/3 600 м
[Cb cap]
-7.4 -10.0 82 -12 -12 1016.0 1014.9
15 13.11 С 3-4
{5}
20 км 6/6 600 м
[Cb cap]
-7.8 -10.7 80 -14 -14 1015.2 1014.0
18 13.11 С 3-5
{5}
20 км 10/8 750 м
[Cb cap Ac As Ci ing]
-6.9 -10.4 76 -12 -12 1014.5 1013.4
21 13.11 С 3-5
{5}
20 км 10/10 660 м
[Cb cap]
-7.2 -10.5 77 -13 -13 1012.6 1011.4 -9.3 38
00 14.11 С 3-4
{6}
4000 м слабый ливневой снег 10/9 500 м
[Cb cap Ci ing]
-6.1 -7.9 87 -12 -12 1011.0 1009.9
03 14.11 СВ 4-6
{8}
2000 м слабый ливневой снег {метель} 10/10 330 м
[Cb cap]
-4.2 -6.3 85 -10 -10 1005.8 1004.6
06 14.11 СЗ 2-4
{6}
500 м ливневой снег {метель} 10/10 100 м
[Cb cap]
-2.3 -2.6 98 -7 -7 1000.4 999.3
09 14.11 СЗ 3-4
{8}
10 км в посл. час ливневой дождь 10/9 300 м
[Cb cap Ci ing]
-0.1 -0.3 99 -5 -5 995.4 994.3 -0.1 25
12 14.11 Ю 9-13
{13}
20 км {ливн. осадки} ясно +1.9 -1.7 77 -5 -5 995.0 993.9
15 14.11 З 6-8
{14}
20 км слабый ливневой снег 6/6 600 м
[Cb cap]
-1.1 -4.5 78 -8 -8 996.5 995.4
18 14.11 ЮЗ 6-9
{11}
20 км {ливн. осадки} ясно -1.3 -5.2 75 -8 -8 996.3 995.2
21 14.11 З 3-7
{9}
20 км 9/4 600 м
[Cb cap Ac trans]
-1.8 -7.1 67 -6 -6 996.5 995.4 -2.2 0.0 47
00 15.11 ЮЗ 3-5
{7}
20 км слабый ливневой снег 10/5 600 м
[Cb cap Ci ing]
-2.7 -6.8 73 -8 -7 997.9 996.8 -2.9
03 15.11 ЮЗ 6-11
{11}
20 км в посл. час ливневой снег 4/4 600 м
[Cb cap]
-2.7 -9.1 61 -10 -9 997.9 996.8
06 15.11 ЮЗ 5-7
{11}
20 км осадки на расстоянии {ливн. осадки} 3/3 600 м
[Cb cap]
-3.7 -8.7 68 -10 -10 1000.4 999.3
09 15.11 ЮЗ 4-6
{9}
20 км 1/1 600 м
[Cb cap]
-4.6 -9.1 71 -11 -11 1003.8 1002.6 -1.7 0.0
12 15.11 ЮЗ 4-5
{7}
20 км 4/3 600 м
[Cb cap Ci fib]
-5.0 -8.6 76 -11 -11 1006.6 1005.4
15 15.11 СЗ 3-3
{6}
20 км ясно -9.8 -11.3 89 -16 -16 1008.5 1007.3
18 15.11 СЗ 2-2
{4}
20 км ясно -15.0 -16.4 89 -20 -20 1010.9 1009.7
21 15.11 С 2-2
{3}
20 км ясно -13.5 -14.7 91 -18 -18 1012.5 1011.3 -16.5 46
00 16.11 С 1-2
{4}
20 км 3/0
[Ci fib]
-11.0 -12.1 92 -13 -12 1014.4 1013.2
03 16.11 В 2-3
{3}
20 км 1/1 600 м
[Cb cap]
-5.2 -9.2 73 -9 -7 1013.8 1012.6
06 16.11 СЗ 1-2
{3}
20 км 4/3 600 м
[Cb cap Ac trans]
-4.8 -10.7 63 -7 -7 1013.8 1012.6
09 16.11 СЗ 2-3
{3}
20 км 6/3 600 м
[Cb cap Ac trans]
-9.9 -12.6 81 -14 -14 1014.8 1013.7 -3.8
12 16.11 СЗ 2-3
{4}
20 км 10/3 600 м
[Cb cap Ci ing]
-7.8 -10.0 84 -12 -12 1015.0 1013.8
15 16.11 С 3-4
{5}
20 км 10/1 600 м
[Cb cap Ac trans Ci ing]
-9.7 -11.6 86 -16 -16 1014.8 1013.6
18 16.11 С 3-4
{4}
20 км 10/3 600 м
[Cb cap Ac trans Ci ing]
-12.8 -14.0 91 -19 -19 1015.0 1013.8
21 16.11 С 6-8
{10}
20 км 10/3 600 м
[Cb cap Ci ing]
-8.7 -11.5 80 -17 -17 1015.8 1014.6 -13.1 45
00 17.11 С 5-7
{9}
20 км 5/0
[Ac trans Ci ing]
-8.6 -12.8 72 -16 -16 1016.5 1015.3
03 17.11 С 3-5
{8}
20 км 8/1 600 м
[Cb cap Ac trans Ci ing]
-5.8 -11.6 64 -11 -10 1015.5 1014.3
06 17.11 С 3-5
{6}
20 км 4/3 600 м
[Cb cap Ac trans Ci ing]
-6.2 -12.2 62 -11 -11 1015.8 1014.7
09 17.11 С 2-3
{5}
20 км 5/1 600 м
[Cb cap Ac trans Ci ing]
-10.1 -13.8 74 -15 -15 1017.2 1016.0 -5.4
12 17.11 СЗ 3-4
{6}
20 км 3/1 600 м
[Cb cap Ac trans]
-11.9 -15.7 73 -18 -18 1017.9 1016.7
15 17.11 С 4-5
{5}
20 км 6/1 600 м
[Cb cap Ac trans Ci fib]
-13.9 -16.3 82 -21 -21 1017.0 1015.8
18 17.11 С 4-5
{5}
20 км 8/3 600 м
[Cb cap Ac trans Ci fib]
-14.3 -17.2 79 -22 -22 1016.4 1015.2
21 17.11 С 3-5
{5}
20 км 4/1 600 м
[Cb cap Ac trans Ci fib]
-16.4 -19.0 80 -23 -23 1016.1 1014.9 -16.7 44
00 18.11 С 5-7
{8}
2000 м ливневой снег {метель} 10/10 120 м
[Cb cap]
-12.0 -15.3 76 -20 -20 1014.0 1012.8
03 18.11 С 6-9
{10}
500 м ливневой снег {метель} 10/10 100 м
[Cb cap]
-10.1 -11.6 89 -19 -19 1010.1 1008.9
06 18.11 С 7-11
{13}
500 м ливневой снег {метель} 10/10 100 м
[Cb cap]
-7.4 -8.9 89 -16 -16 1005.6 1004.5
09 18.11 С 8-12
{14}
2000 м слабый ливневой снег {метель} 10/10 90 м
[Cb cap]
-7.3 -8.4 92 -17 -17 1002.4 1001.3 -7.0 3
12 18.11 С 6-10
{15}
1000 м ливневой снег {метель} 10/10 100 м
[Cb cap]
-6.7 -7.8 92 -15 -15 1002.4 1001.2
15 18.11 СЗ 1-4
{10}
2000 м слабый ливневой снег {метель} 10/10 150 м
[Cb cap]
-7.1 -8.5 90 -10 -10 1002.6 1001.4
18 18.11 СЗ 5-8
{8}
20 км {ливн. осадки, метель} 8/3 600 м
[Cb cap Ac trans Ci ing]
-6.9 -13.3 60 -14 -14 1003.0 1001.9
21 18.11 С 2-3
{8}
20 км 4/3 600 м
[Cb cap Ac trans Ci fib]
-10.9 -15.2 71 -15 -15 1004.4 1003.2 -10.9 3 45
00 19.11 СВ 3-4
{4}
20 км 3/3 600 м
[Cb cap]
-9.7 -13.7 73 -16 -15 1005.6 1004.4 -16.8
03 19.11 СВ 2-3
{5}
20 км осадки на расстоянии 9/3 600 м
[Cb cap Ac trans Ci ing]
-6.0 -12.3 61 -10 -9 1005.5 1004.4
06 19.11 С 3-5
{6}
20 км осадки на расстоянии 9/3 600 м
[Cb cap Ac lent Ci ing]
-7.1 -11.7 70 -13 -13 1004.5 1003.3
09 19.11 СЗ 2-3
{5}
20 км 9/3 600 м
[Cb cap Ac lent Ci ing]
-9.9 -13.5 75 -14 -14 1005.8 1004.6 -5.9
12 19.11 С 3-4
{5}
20 км 9/0
[Ac As]
-9.3 -14.8 64 -15 -15 1007.0 1005.8
15 19.11 С 4-7
{7}
20 км в посл. час ливневой снег 10/3 600 м
[Cb cap Ac trans Ci fib]
-10.5 -14.7 71 -17 -17 1007.6 1006.4
18 19.11 СЗ 2-3
{7}
20 км {ливн. осадки} ясно -13.7 -16.9 77 -18 -18 1008.5 1007.3
21 19.11 СЗ 1-2
{4}
20 км ясно -18.3 -20.2 85 -21 -21 1009.2 1008.0 -18.3 0.0 44
00 20.11 СЗ 1-2
{4}
20 км 1/1 600 м
[Cb cap]
-15.4 -18.3 78 -18 -17 1009.3 1008.1 -19.6

 

Местоположение метеостанции Поронайск (Сахалинская область, Россия): широта 49.22 долгота 143.10 высота над уровнем моря 8 м.

В архиве по умолчанию представлена погода в Поронайске за последнюю неделю. Архивные данные за месяц целиком и за предыдущие месяцы, начиная с января 2011 года, Вы можете получить, выбрав интересующий диапазон дат из раскрывающегося списка и нажав кнопку "Ввод!".

Внимание! Время в таблицах - всемирное. Для получения местного времени необходимо прибавить поправку, которая в Поронайске равна 11 ч.

Смотрите также архив погоды в соседних городах и на ближайших метеорологических станциях:

Погода в Макарове (Сахалинская область, Россия) (73 км)
Погода в Углегорске (Сахалинская область, Россия) (82 км)
Погода в Первомайском (Сахалинская область, Россия) (84 км)
Погода в Пильво (Сахалинская область, Россия) (117 км)
Погода в Оноре (Сахалинская область, Россия) (120 км)
Погода на Мысе Терпения (Сахалинская область, Россия) (133 км)
Погода в Пограничном (Сахалинская область, Россия) (138 км)
Погода в Ильинском (Сахалинская область, Россия) (153 км)
Погода в Тымовском (Сахалинская область, Россия) (170 км)
Погода в Александровск-Сахалинском (Сахалинская область, Россия) (200 км)

Пояснения к столбцам:

Ветер - указаны скорость ветра в м/с - средняя за 10 мин, порывы в срок и между сроками (в фигурных скобках) и направление, откуда дует ветер: С - северный, СВ - северо-восточный, В - восточный, ЮВ - юго-восточный, Ю - южный, ЮЗ - юго-западный, З - западный, СЗ - северо-западный.
Видимость - горизонтальная дальность видимости в метрах или километрах. При видимости от 1 до 10 км при отсутствии осадков обычно наблюдается дымка, при ухудшении видимости до 1 км и менее - туман. В сухую погоду видимость может ухудшаться дымом, пылью или мглою.
Явления - указаны атмосферные явления, наблюдавшиеся в срок или в последний час перед сроком; фигурными скобками обозначены явления, наблюдавшиеся между сроками (за 1-3 часа до срока); квадратными скобками обозначены град или гололедные отложения с указанием их диаметра в мм.
Облачность - указаны через наклонную черту общая и нижняя облачность в баллах и высота нижней границы облаков в метрах; квадратными скобками обозначены формы облаков: Ci - перистые, Cs - перисто-слоистые, Cc - перисто-кучевые, Ac - высококучевые, As - высокослоистые, Sc - слоисто-кучевые, Ns - слоисто-дождевые, Cu - кучевые, Cb - кучево-дождевые. Подробнее классификацию облаков см. в Атласе облаков (PDF).
T - Температура воздуха - температура, измеренная на высоте 2 м над землей.
Td - Температура точки росы - температура, при понижении до которой содержащийся в воздухе водяной пар достигнет насыщения.
f - Относительная влажность воздуха - влажноcть воздуха, измеренная на высоте 2 м над землей.
Te - Эффективная температура - температура, которую ощущает одетый по сезону человек в тени. Характеристика душности погоды. При расчете учитывается влияние влажности воздуха и скорости ветра на теплоощущения человека.
Tes - Эффективная температура на солнце - температура, которую ощущает человек, с поправкой на солнечный нагрев. Характеристика знойности погоды. Зависит от высоты солнца над горизонтом, облачности и скорости ветра. Ночью, в пасмурную погоду, а также при ветре 12 м/с и более поправка равна нулю.
P - Атмосферное давление - приведенное к уровню моря атмосферное давление.
Po - Атмосферное давление - измеренное на уровне метеостанции атмосферное давление.
Tmin - Минимальная температура - минимум температуры воздуха на высоте 2 м над землей.
Tmax - Максимальная температура - максимум температуры воздуха на высоте 2 м над землей.
R - Количество осадков - Количество выпавших осадков за период времени, мм. При наведении курсора мыши на число - период времени, за который выпало указанное количество осадков.
R24 - Количество осадков - Количество выпавших осадков за 24 часа, мм.
S - Снежный покров - Высота снежного покрова, см. При наведении курсора мыши на число - состояние снежного покрова и степень покрытия местности в баллах.